Skip Page Navigation
NASA JPL Caltech
NASA Logo - Jet Propulsion Laboratory + View the NASA Portal
+ Center for Near-Earth Object Studies
JPL Home Earth Solar System Stars & Galaxies Technology
JPL Solar System Dynamics
BODIES ORBITS EPHEMERIDES TOOLS PHYSICAL DATA DISCOVERY FAQ SITE MAP
JPL Small-Body Database Browser
Search: [ help ]  
362739 (2011 UO307)
Classification: Main-belt Asteroid          SPK-ID: 2362739
Ephemeris | Orbit Diagram | Orbital Elements | Mission Design | Physical Parameters | Discovery Circumstances ]

[ show orbit diagram ]
Orbital Elements at Epoch 2459200.5 (2020-Dec-17.0) TDB
Reference: JPL 17 (heliocentric ecliptic J2000)
 Element Value Uncertainty (1-sigma)   Units 
e .1303387628266047 5.2051e-08  
a 2.533027025290531 2.1056e-08 au
q 2.202875416607809 1.2872e-07 au
i 6.411505153145196 4.462e-06 deg
node 310.6356904600777 7.573e-05 deg
peri 150.0674994896406 8.2172e-05 deg
M 54.4528059754503 3.3579e-05 deg
tp 2458977.771431812784
(2020-May-08.27143181)
0.00013714 TDB
period 1472.509691852196
4.03
1.836e-05
5.027e-08
d
yr
n .2444805640275101 3.0484e-09 deg/d
Q 2.863178633973253 2.38e-08 au
  Orbit Determination Parameters
   # obs. used (total)      208  
   data-arc span      6373 days (17.45 yr)  
   first obs. used      2003-11-19  
   last obs. used      2021-05-01  
   planetary ephem.      DE441  
   SB-pert. ephem.      SB441-N16  
   condition code      0  
   norm. resid. RMS      .55689  
   source      ORB  
   producer      Otto Matic  
   solution date      2021-May-04 12:18:25  

Additional Information
 Earth MOID = 1.22218 au 
 Jupiter MOID = 2.27016 au 
 T_jup = 3.429 
[ show covariance matrix ]

Ephemeris | Orbit Diagram | Orbital Elements | Mission Design | Physical Parameters | Discovery Circumstances ]

Physical Parameter Table
Parameter Symbol Value Units Sigma Reference Notes
absolute magnitude H 16.8   n/a MPO360779  

362739 (2011 UO307)          Discovered 2003-Nov-19 by LINEAR at Socorro
Reference: Last Updated: 2013-04-29

Alternate Designations
 2011 UO307 = 2003 WT37 
Ephemeris | Orbit Diagram | Orbital Elements | Mission Design | Physical Parameters | Discovery Circumstances ]
ABOUT SSD CREDITS/AWARDS PRIVACY/COPYRIGHT GLOSSARY LINKS
FirstGov 2021-Jun-14 07:04 UT
(server date/time)  
NASA Home Page
Site Manager:   Ryan S. Park
Webmaster  Alan B. Chamberlin